FFL9133 CYVR-CYXY

Flight info

Callsign FFL9133
Flight time 2h 9m
Altitude 38000
Route FASBO DCT DUXAR DCT GOROV GOROV2
Aircraft B737/M-SDE2E3FGHIRWXY/LB1

Departure

Time 2026-04-17 04:02
Airport Vancouver International Airport (CYVR)

Arrival

Time 2026-04-17 06:11
Airport Whitehorse / Erik Nielsen International Airport (CYXY)
Time Latitude Longitude Altitude Speed Heading
2026-04-17 03:36 49.18170 -123.16516 0 ft 0 kts 275°
2026-04-17 03:52 49.18170 -123.16520 22 ft 2 kts 275°
2026-04-17 03:53 49.18177 -123.16548 23 ft 3 kts 312°
2026-04-17 03:53 49.18203 -123.16548 22 ft 5 kts 13°
2026-04-17 03:53 49.18232 -123.16572 24 ft 6 kts 292°
2026-04-17 03:53 49.18237 -123.16650 22 ft 9 kts 275°
2026-04-17 03:54 49.18245 -123.16791 25 ft 17 kts 275°
2026-04-17 03:54 49.18256 -123.16972 22 ft 17 kts 275°
2026-04-17 03:54 49.18266 -123.17144 22 ft 9 kts 275°
2026-04-17 03:54 49.18298 -123.17219 22 ft 9 kts 323°
2026-04-17 03:55 49.18359 -123.17287 23 ft 12 kts 324°
2026-04-17 03:55 49.18421 -123.17366 22 ft 12 kts 298°
2026-04-17 03:55 49.18435 -123.17485 24 ft 11 kts 279°
2026-04-17 03:55 49.18447 -123.17602 25 ft 11 kts 279°
2026-04-17 03:56 49.18459 -123.17716 22 ft 11 kts 279°
2026-04-17 03:56 49.18474 -123.17825 22 ft 10 kts 283°
2026-04-17 03:56 49.18487 -123.17932 22 ft 10 kts 281°
2026-04-17 03:56 49.18507 -123.18094 23 ft 20 kts 281°
2026-04-17 03:57 49.18534 -123.18311 23 ft 21 kts 280°
2026-04-17 03:57 49.18557 -123.18525 21 ft 20 kts 278°
2026-04-17 03:57 49.18579 -123.18733 23 ft 20 kts 279°
2026-04-17 03:57 49.18602 -123.18935 22 ft 19 kts 279°
2026-04-17 03:58 49.18623 -123.19130 24 ft 18 kts 279°
2026-04-17 03:58 49.18644 -123.19319 22 ft 18 kts 279°
2026-04-17 03:58 49.18664 -123.19501 23 ft 17 kts 279°
2026-04-17 03:58 49.18684 -123.19676 22 ft 16 kts 279°
2026-04-17 03:59 49.18703 -123.19844 22 ft 16 kts 281°
2026-04-17 03:59 49.18725 -123.20006 22 ft 15 kts 281°
2026-04-17 03:59 49.18743 -123.20161 22 ft 15 kts 280°
2026-04-17 03:59 49.18760 -123.20310 22 ft 14 kts 279°
2026-04-17 04:00 49.18775 -123.20452 22 ft 13 kts 279°
2026-04-17 04:00 49.18809 -123.20536 22 ft 1 kts 340°
2026-04-17 04:00 49.18836 -123.20530 22 ft 9 kts 13°
2026-04-17 04:00 49.18846 -123.20526 22 ft 4 kts 13°
2026-04-17 04:01 49.18848 -123.20526 22 ft 0 kts 13°
2026-04-17 04:01 49.18874 -123.20517 23 ft 12 kts 13°
2026-04-17 04:01 49.18955 -123.20430 23 ft 15 kts 65°
2026-04-17 04:01 49.18946 -123.20240 25 ft 34 kts 100°
2026-04-17 04:02 49.18851 -123.19421 23 ft 120 kts 100°
2026-04-17 04:02 49.18677 -123.17827 238 ft 173 kts 98°
2026-04-17 04:02 49.18517 -123.15992 1433 ft 168 kts 99°
2026-04-17 04:02 49.18298 -123.14256 2613 ft 167 kts 109°
2026-04-17 04:03 49.17800 -123.12591 3462 ft 180 kts 122°
2026-04-17 04:03 49.17001 -123.11050 4376 ft 194 kts 143°
2026-04-17 04:03 49.15743 -123.10162 4876 ft 204 kts 170°
2026-04-17 04:03 49.14328 -123.10171 5564 ft 208 kts 197°
2026-04-17 04:04 49.12988 -123.11148 5936 ft 230 kts 218°
2026-04-17 04:04 49.11803 -123.13047 6194 ft 256 kts 248°
2026-04-17 04:04 49.11555 -123.15714 6948 ft 259 kts 282°
2026-04-17 04:04 49.12329 -123.18155 7809 ft 259 kts 312°
2026-04-17 04:05 49.13756 -123.19818 8712 ft 260 kts 330°
2026-04-17 04:05 49.15396 -123.21035 9533 ft 264 kts 335°
2026-04-17 04:05 49.17074 -123.22132 9947 ft 261 kts 336°
2026-04-17 04:05 49.18762 -123.23207 10384 ft 266 kts 336°
2026-04-17 04:06 49.20547 -123.24351 10584 ft 291 kts 336°
2026-04-17 04:06 49.22484 -123.25608 10789 ft 314 kts 336°
2026-04-17 04:06 49.24564 -123.26973 10969 ft 336 kts 336°
2026-04-17 04:06 49.26771 -123.28434 11218 ft 353 kts 335°
2026-04-17 04:07 49.29048 -123.29952 11787 ft 360 kts 335°
2026-04-17 04:07 49.31315 -123.31472 12520 ft 361 kts 335°
2026-04-17 04:07 49.33619 -123.33023 13251 ft 363 kts 335°
2026-04-17 04:07 49.35929 -123.34584 13950 ft 365 kts 335°
2026-04-17 04:08 49.38272 -123.36172 14570 ft 368 kts 335°
2026-04-17 04:08 49.40619 -123.37765 15195 ft 370 kts 335°
2026-04-17 04:08 49.42977 -123.39369 15807 ft 372 kts 335°
2026-04-17 04:08 49.45350 -123.40985 16405 ft 374 kts 335°
2026-04-17 04:09 49.47742 -123.42616 16978 ft 377 kts 335°
2026-04-17 04:09 49.50148 -123.44258 17548 ft 380 kts 335°
2026-04-17 04:09 49.52574 -123.45917 18137 ft 382 kts 335°
2026-04-17 04:09 49.55013 -123.47586 18716 ft 384 kts 335°
2026-04-17 04:10 49.57461 -123.49263 19246 ft 386 kts 335°
2026-04-17 04:10 49.59922 -123.50950 19735 ft 389 kts 335°
2026-04-17 04:10 49.62402 -123.52653 20207 ft 391 kts 335°
2026-04-17 04:10 49.64893 -123.54365 20684 ft 393 kts 335°
2026-04-17 04:11 49.67395 -123.56086 21157 ft 395 kts 335°
2026-04-17 04:11 49.69911 -123.57819 21615 ft 397 kts 335°
2026-04-17 04:11 49.72441 -123.59563 22024 ft 399 kts 335°
2026-04-17 04:11 49.74980 -123.61316 22448 ft 401 kts 335°
2026-04-17 04:12 49.77537 -123.63082 22858 ft 403 kts 335°
2026-04-17 04:12 49.80103 -123.64859 23275 ft 405 kts 335°
2026-04-17 04:12 49.82683 -123.66647 23698 ft 407 kts 335°
2026-04-17 04:12 49.85273 -123.68443 24052 ft 409 kts 335°
2026-04-17 04:13 49.87877 -123.70252 24375 ft 411 kts 335°
2026-04-17 04:13 49.90492 -123.72070 24651 ft 412 kts 335°
2026-04-17 04:13 49.93077 -123.73870 24995 ft 413 kts 335°
2026-04-17 04:13 49.95701 -123.75698 25302 ft 414 kts 335°
2026-04-17 04:14 49.98337 -123.77538 25585 ft 416 kts 335°
2026-04-17 04:14 50.00978 -123.79382 25895 ft 417 kts 335°
2026-04-17 04:14 50.03629 -123.81236 26189 ft 419 kts 335°
2026-04-17 04:14 50.06282 -123.83094 26622 ft 416 kts 335°
2026-04-17 04:15 50.08912 -123.84938 27062 ft 414 kts 335°
2026-04-17 04:15 50.11529 -123.86775 27571 ft 410 kts 335°
2026-04-17 04:15 50.14118 -123.88594 28059 ft 407 kts 335°
2026-04-17 04:15 50.16697 -123.90408 28495 ft 406 kts 335°
2026-04-17 04:16 50.19265 -123.92217 28892 ft 404 kts 335°
2026-04-17 04:16 50.21824 -123.94020 29241 ft 404 kts 335°
2026-04-17 04:16 50.24384 -123.95829 29626 ft 403 kts 335°
2026-04-17 04:16 50.26931 -123.97631 30080 ft 401 kts 335°
2026-04-17 04:17 50.29466 -123.99425 30505 ft 399 kts 334°
2026-04-17 04:17 50.31991 -124.01214 30849 ft 398 kts 335°
2026-04-17 04:17 50.34518 -124.03008 31112 ft 399 kts 334°
2026-04-17 04:17 50.37048 -124.04805 31457 ft 399 kts 334°
2026-04-17 04:18 50.39565 -124.06595 31854 ft 397 kts 334°
2026-04-17 04:18 50.42081 -124.08386 32173 ft 397 kts 334°
2026-04-17 04:18 50.43751 -124.09576 32299 ft 399 kts 334°
2026-04-17 04:18 50.46287 -124.11386 32547 ft 401 kts 334°
2026-04-17 04:19 50.49661 -124.13797 32894 ft 402 kts 334°
2026-04-17 04:19 50.52201 -124.15613 33257 ft 401 kts 334°
2026-04-17 04:19 50.54737 -124.17430 33581 ft 400 kts 334°
2026-04-17 04:19 50.56450 -124.18657 33753 ft 400 kts 334°
2026-04-17 04:20 50.58946 -124.20449 34014 ft 400 kts 334°
2026-04-17 04:20 50.61471 -124.22263 34289 ft 399 kts 334°
2026-04-17 04:20 50.63996 -124.24080 34507 ft 400 kts 334°
2026-04-17 04:20 50.66529 -124.25904 34674 ft 401 kts 334°
2026-04-17 04:21 50.69076 -124.27740 34825 ft 403 kts 334°
2026-04-17 04:21 50.71625 -124.29579 35036 ft 402 kts 334°
2026-04-17 04:21 50.74170 -124.31419 35264 ft 402 kts 334°
2026-04-17 04:21 50.76719 -124.33264 35428 ft 404 kts 334°
2026-04-17 04:22 50.79275 -124.35115 35608 ft 404 kts 334°
2026-04-17 04:22 50.81830 -124.36969 35796 ft 405 kts 334°
2026-04-17 04:22 50.84391 -124.38829 35991 ft 405 kts 334°
2026-04-17 04:22 50.86957 -124.40695 36141 ft 407 kts 334°
2026-04-17 04:23 50.89532 -124.42570 36332 ft 407 kts 334°
2026-04-17 04:23 50.92108 -124.44447 36529 ft 407 kts 334°
2026-04-17 04:23 50.94684 -124.46327 36667 ft 408 kts 334°
2026-04-17 04:23 50.97264 -124.48213 36772 ft 409 kts 334°
2026-04-17 04:24 50.99852 -124.50107 36903 ft 410 kts 334°
2026-04-17 04:24 51.02442 -124.52005 37114 ft 409 kts 334°
2026-04-17 04:24 51.05030 -124.53902 37267 ft 410 kts 334°
2026-04-17 04:24 51.07629 -124.55810 37385 ft 412 kts 334°
2026-04-17 04:25 51.10229 -124.57721 37543 ft 412 kts 334°
2026-04-17 04:25 51.12831 -124.59637 37731 ft 412 kts 334°
2026-04-17 04:25 51.15429 -124.61552 37867 ft 413 kts 334°
2026-04-17 04:26 51.20658 -124.65413 38137 ft 414 kts 334°
2026-04-17 04:26 51.23275 -124.67349 38292 ft 414 kts 334°
2026-04-17 04:26 51.25901 -124.69295 38283 ft 417 kts 334°
2026-04-17 04:27 51.31168 -124.73204 38286 ft 416 kts 334°
2026-04-17 04:27 51.36377 -124.77080 38301 ft 416 kts 334°
2026-04-17 04:28 51.41611 -124.80984 38293 ft 414 kts 334°
2026-04-17 04:28 51.46835 -124.84891 38298 ft 415 kts 334°
2026-04-17 04:29 51.52057 -124.88806 38301 ft 414 kts 334°
2026-04-17 04:29 51.57270 -124.92724 38290 ft 413 kts 334°
2026-04-17 04:30 51.62472 -124.96645 38302 ft 413 kts 334°
2026-04-17 04:30 51.67673 -125.00574 38298 ft 412 kts 334°
2026-04-17 04:31 51.72854 -125.04499 38303 ft 412 kts 334°
2026-04-17 04:31 51.78042 -125.08438 38313 ft 411 kts 334°
2026-04-17 04:32 51.83211 -125.12373 38296 ft 412 kts 334°
2026-04-17 04:32 51.88387 -125.16324 38291 ft 411 kts 334°
2026-04-17 04:33 51.93570 -125.20290 38294 ft 413 kts 334°
2026-04-17 04:33 51.98773 -125.24282 38300 ft 414 kts 334°
2026-04-17 04:34 52.06607 -125.30312 38310 ft 417 kts 334°
2026-04-17 04:34 52.11851 -125.34361 38308 ft 418 kts 334°
2026-04-17 04:35 52.17104 -125.38427 38314 ft 418 kts 334°
2026-04-17 04:35 52.22329 -125.42483 38298 ft 419 kts 334°
2026-04-17 04:36 52.27588 -125.46576 38319 ft 419 kts 334°
2026-04-17 04:36 52.32840 -125.50674 38310 ft 419 kts 334°
2026-04-17 04:37 52.38095 -125.54787 38321 ft 419 kts 334°
2026-04-17 04:37 52.43346 -125.58905 38303 ft 418 kts 334°
2026-04-17 04:38 52.48592 -125.63031 38313 ft 418 kts 334°
2026-04-17 04:38 52.53832 -125.67164 38317 ft 417 kts 334°
2026-04-17 04:39 52.59061 -125.71299 38314 ft 417 kts 334°
2026-04-17 04:39 52.64287 -125.75442 38301 ft 417 kts 334°
2026-04-17 04:40 52.69506 -125.79591 38304 ft 417 kts 334°
2026-04-17 04:40 52.74727 -125.83753 38313 ft 417 kts 334°
2026-04-17 04:41 52.79979 -125.87951 38330 ft 422 kts 334°
2026-04-17 04:41 52.85284 -125.92203 38308 ft 425 kts 334°
2026-04-17 04:42 52.90602 -125.96476 38320 ft 426 kts 334°
2026-04-17 04:42 52.95942 -126.00779 38307 ft 426 kts 334°
2026-04-17 04:43 53.01251 -126.05069 38315 ft 426 kts 334°
2026-04-17 04:43 53.06586 -126.09392 38303 ft 426 kts 334°
2026-04-17 04:44 53.11920 -126.13726 38314 ft 425 kts 334°
2026-04-17 04:44 53.17240 -126.18060 38311 ft 425 kts 334°
2026-04-17 04:45 53.22541 -126.22392 38319 ft 424 kts 334°
2026-04-17 04:45 53.27805 -126.26705 38294 ft 424 kts 334°
2026-04-17 04:46 53.33095 -126.31051 37957 ft 423 kts 333°
2026-04-17 04:46 53.35720 -126.33209 38104 ft 419 kts 331°
2026-04-17 04:46 53.38328 -126.35357 38193 ft 416 kts 331°
2026-04-17 04:47 53.43518 -126.39646 38296 ft 414 kts 331°
2026-04-17 04:47 53.48696 -126.43937 38304 ft 415 kts 331°
2026-04-17 04:48 53.53879 -126.48244 38300 ft 416 kts 331°
2026-04-17 04:48 53.59076 -126.52573 38306 ft 417 kts 331°
2026-04-17 04:49 53.64243 -126.56888 38299 ft 417 kts 331°
2026-04-17 04:49 53.69439 -126.61240 38296 ft 417 kts 331°
2026-04-17 04:50 53.74646 -126.65614 38288 ft 418 kts 331°
2026-04-17 04:50 53.79851 -126.69998 38294 ft 417 kts 331°
2026-04-17 04:51 53.85056 -126.74393 38282 ft 417 kts 331°
2026-04-17 04:51 53.90248 -126.78790 38291 ft 417 kts 331°
2026-04-17 04:52 53.95445 -126.83204 38295 ft 417 kts 331°
2026-04-17 04:52 54.00610 -126.87603 38278 ft 418 kts 331°
2026-04-17 04:53 54.05803 -126.92039 38273 ft 417 kts 331°
2026-04-17 04:55 54.26552 -127.09884 38279 ft 417 kts 330°
2026-04-17 04:55 54.31730 -127.14370 38272 ft 417 kts 330°
2026-04-17 04:56 54.36900 -127.18862 38274 ft 416 kts 330°
2026-04-17 04:56 54.42024 -127.23324 38267 ft 416 kts 330°
2026-04-17 04:57 54.47178 -127.27826 38267 ft 415 kts 330°
2026-04-17 04:57 54.52340 -127.32349 38244 ft 416 kts 330°
2026-04-17 04:58 54.57503 -127.36886 38244 ft 416 kts 330°
2026-04-17 04:58 54.62628 -127.41401 38228 ft 415 kts 330°
2026-04-17 04:59 54.67761 -127.45938 38225 ft 414 kts 330°
2026-04-17 04:59 54.72892 -127.50484 38220 ft 414 kts 330°
2026-04-17 05:00 54.78015 -127.55037 38232 ft 413 kts 330°
2026-04-17 05:00 54.83127 -127.59593 38226 ft 413 kts 330°
2026-04-17 05:01 54.88234 -127.64157 38231 ft 413 kts 330°
2026-04-17 05:01 54.93341 -127.68735 38247 ft 412 kts 330°
2026-04-17 05:02 54.98438 -127.73318 38258 ft 413 kts 330°
2026-04-17 05:02 55.03541 -127.77920 38258 ft 413 kts 329°
2026-04-17 05:03 55.08623 -127.82514 38258 ft 414 kts 330°
2026-04-17 05:03 55.13734 -127.87148 38250 ft 414 kts 329°
2026-04-17 05:04 55.18850 -127.91800 38263 ft 415 kts 329°
2026-04-17 05:04 55.23978 -127.96478 38251 ft 416 kts 329°
2026-04-17 05:05 55.29113 -128.01175 38263 ft 416 kts 329°
2026-04-17 05:05 55.34258 -128.05895 38259 ft 418 kts 329°
2026-04-17 05:06 55.39378 -128.10606 38266 ft 418 kts 329°
2026-04-17 05:06 55.44532 -128.15363 38251 ft 418 kts 329°
2026-04-17 05:07 55.49691 -128.20138 38266 ft 419 kts 329°
2026-04-17 05:07 55.54855 -128.24932 38256 ft 419 kts 329°
2026-04-17 05:08 55.59140 -128.28922 38269 ft 419 kts 329°
2026-04-17 05:08 55.64303 -128.33741 38267 ft 419 kts 329°
2026-04-17 05:09 55.69459 -128.38568 38266 ft 419 kts 329°
2026-04-17 05:09 55.74608 -128.43403 38265 ft 418 kts 329°
2026-04-17 05:10 55.77182 -128.45829 38473 ft 421 kts 331°
2026-04-17 05:10 55.79775 -128.48293 38358 ft 423 kts 330°
2026-04-17 05:10 55.84787 -128.53770 38266 ft 423 kts 327°
2026-04-17 05:11 55.89675 -128.59471 38255 ft 422 kts 326°
2026-04-17 05:11 55.94579 -128.65173 38249 ft 420 kts 327°
2026-04-17 05:12 55.99483 -128.70828 38247 ft 419 kts 327°
2026-04-17 05:12 56.04387 -128.76470 38253 ft 419 kts 327°
2026-04-17 05:13 56.09286 -128.82114 38252 ft 418 kts 327°
2026-04-17 05:13 56.14174 -128.87765 38249 ft 418 kts 327°
2026-04-17 05:14 56.19060 -128.93430 38250 ft 418 kts 326°
2026-04-17 05:14 56.23939 -128.99106 38255 ft 418 kts 326°
2026-04-17 05:15 56.28822 -129.04803 38241 ft 418 kts 326°
2026-04-17 05:15 56.33677 -129.10487 38233 ft 418 kts 326°
2026-04-17 05:16 56.38554 -129.16213 38244 ft 418 kts 326°
2026-04-17 05:16 56.43428 -129.21953 38250 ft 418 kts 326°
2026-04-17 05:17 56.48315 -129.27726 38234 ft 419 kts 326°
2026-04-17 05:17 56.53193 -129.33508 38244 ft 419 kts 326°
2026-04-17 05:18 56.58068 -129.39304 38221 ft 419 kts 326°
2026-04-17 05:18 56.62936 -129.45108 38229 ft 419 kts 326°
2026-04-17 05:19 56.67801 -129.50929 38235 ft 419 kts 326°
2026-04-17 05:19 56.72668 -129.56769 38225 ft 419 kts 325°
2026-04-17 05:20 56.77533 -129.62625 38232 ft 418 kts 325°
2026-04-17 05:20 56.82383 -129.68484 38230 ft 418 kts 325°
2026-04-17 05:21 56.87231 -129.74356 38230 ft 418 kts 325°
2026-04-17 05:21 56.92036 -129.80195 38225 ft 417 kts 325°
2026-04-17 05:22 56.96869 -129.86088 38229 ft 417 kts 325°
2026-04-17 05:22 57.01701 -129.91997 38242 ft 417 kts 325°
2026-04-17 05:23 57.06522 -129.97912 38236 ft 416 kts 325°
2026-04-17 05:23 57.11334 -130.03836 38243 ft 417 kts 324°
2026-04-17 05:24 57.16154 -130.09786 38223 ft 417 kts 324°
2026-04-17 05:24 57.20977 -130.15761 38217 ft 418 kts 324°
2026-04-17 05:25 57.25809 -130.21765 38207 ft 419 kts 324°
2026-04-17 05:25 57.30643 -130.27792 38214 ft 419 kts 324°
2026-04-17 05:26 57.35474 -130.33834 38210 ft 419 kts 324°
2026-04-17 05:26 57.40315 -130.39908 38212 ft 420 kts 324°
2026-04-17 05:27 57.45153 -130.45998 38208 ft 421 kts 324°
2026-04-17 05:27 57.49966 -130.52077 38203 ft 421 kts 324°
2026-04-17 05:28 57.54808 -130.58210 38187 ft 421 kts 324°
2026-04-17 05:28 57.59645 -130.64359 38194 ft 421 kts 324°
2026-04-17 05:29 57.64479 -130.70524 38186 ft 421 kts 323°
2026-04-17 05:29 57.69311 -130.76706 38193 ft 421 kts 323°
2026-04-17 05:30 57.74136 -130.82901 38192 ft 421 kts 323°
2026-04-17 05:30 57.78970 -130.89127 38182 ft 421 kts 323°
2026-04-17 05:31 57.83768 -130.95328 38172 ft 421 kts 323°
2026-04-17 05:31 57.88591 -131.01580 38177 ft 421 kts 323°
2026-04-17 05:32 57.93406 -131.07844 38184 ft 421 kts 323°
2026-04-17 05:32 57.98229 -131.14140 38170 ft 421 kts 323°
2026-04-17 05:33 58.03046 -131.20448 38181 ft 421 kts 323°
2026-04-17 05:33 58.07853 -131.26764 38185 ft 421 kts 323°
2026-04-17 05:34 58.12663 -131.33105 38180 ft 422 kts 323°
2026-04-17 05:34 58.17468 -131.39458 38137 ft 420 kts 322°
2026-04-17 05:35 58.22262 -131.45823 38171 ft 421 kts 322°
2026-04-17 05:35 58.27065 -131.52220 38181 ft 422 kts 322°
2026-04-17 05:36 58.31879 -131.58653 38183 ft 423 kts 322°
2026-04-17 05:36 58.36699 -131.65115 38182 ft 424 kts 322°
2026-04-17 05:37 58.41525 -131.71607 38188 ft 425 kts 322°
2026-04-17 05:37 58.46350 -131.78121 38178 ft 425 kts 322°
2026-04-17 05:38 58.51146 -131.84617 38190 ft 425 kts 322°
2026-04-17 05:38 58.55971 -131.91175 38178 ft 425 kts 321°
2026-04-17 05:39 58.60786 -131.97743 38196 ft 424 kts 321°
2026-04-17 05:39 58.65593 -132.04320 38191 ft 425 kts 321°
2026-04-17 05:40 58.70406 -132.10931 38193 ft 425 kts 321°
2026-04-17 05:40 58.75215 -132.17559 38201 ft 424 kts 321°
2026-04-17 05:41 58.80017 -132.24200 38181 ft 425 kts 321°
2026-04-17 05:41 58.84819 -132.30864 38200 ft 424 kts 321°
2026-04-17 05:42 58.89613 -132.37540 38196 ft 425 kts 321°
2026-04-17 05:42 58.94407 -132.44240 38202 ft 425 kts 321°
2026-04-17 05:43 58.99198 -132.50958 38198 ft 425 kts 321°
2026-04-17 05:43 59.03965 -132.57668 38207 ft 425 kts 321°
2026-04-17 05:44 59.08762 -132.64441 38193 ft 426 kts 321°
2026-04-17 05:44 59.13546 -132.71222 38211 ft 426 kts 321°
2026-04-17 05:45 59.18334 -132.78031 38207 ft 426 kts 320°
2026-04-17 05:45 59.23125 -132.84870 38192 ft 426 kts 320°
2026-04-17 05:46 59.27910 -132.91724 38196 ft 426 kts 320°
2026-04-17 05:46 59.32696 -132.98604 38202 ft 426 kts 320°
2026-04-17 05:47 59.37468 -133.05489 38183 ft 426 kts 320°
2026-04-17 05:47 59.42237 -133.12392 38185 ft 422 kts 320°
2026-04-17 05:48 59.44554 -133.15751 37930 ft 416 kts 320°
2026-04-17 05:48 59.46862 -133.19104 37501 ft 409 kts 320°
2026-04-17 05:48 59.49142 -133.22423 37089 ft 404 kts 320°
2026-04-17 05:48 59.51389 -133.25701 36683 ft 400 kts 319°
2026-04-17 05:49 59.53616 -133.28957 36279 ft 397 kts 319°
2026-04-17 05:49 59.55819 -133.32184 35892 ft 393 kts 319°
2026-04-17 05:49 59.58004 -133.35388 35501 ft 390 kts 319°
2026-04-17 05:49 59.60176 -133.38578 35120 ft 387 kts 319°
2026-04-17 05:50 59.62327 -133.41745 34695 ft 385 kts 319°
2026-04-17 05:50 59.64392 -133.44790 34269 ft 383 kts 319°
2026-04-17 05:50 59.66525 -133.47939 33766 ft 381 kts 318°
2026-04-17 05:50 59.68644 -133.51073 33233 ft 380 kts 318°
2026-04-17 05:51 59.70755 -133.54199 32717 ft 378 kts 318°
2026-04-17 05:51 59.72849 -133.57304 32203 ft 374 kts 318°
2026-04-17 05:51 59.74916 -133.60373 31680 ft 370 kts 317°
2026-04-17 05:51 59.76964 -133.63419 31208 ft 366 kts 317°
2026-04-17 05:52 59.78995 -133.66445 30720 ft 363 kts 317°
2026-04-17 05:52 59.81003 -133.69442 30240 ft 360 kts 317°
2026-04-17 05:52 59.82999 -133.72426 29706 ft 356 kts 317°
2026-04-17 05:52 59.84972 -133.75381 29151 ft 353 kts 317°
2026-04-17 05:53 59.86926 -133.78312 28615 ft 350 kts 317°
2026-04-17 05:53 59.88865 -133.81225 28082 ft 347 kts 317°
2026-04-17 05:53 59.90764 -133.84081 27569 ft 345 kts 317°
2026-04-17 05:53 59.92666 -133.86947 27051 ft 342 kts 317°
2026-04-17 05:54 59.94558 -133.89801 26534 ft 338 kts 317°
2026-04-17 05:54 59.96426 -133.92622 26083 ft 336 kts 317°
2026-04-17 05:54 59.98284 -133.95435 25586 ft 335 kts 317°
2026-04-17 05:54 60.00134 -133.98239 25111 ft 333 kts 317°
2026-04-17 05:55 60.01975 -134.01034 24645 ft 331 kts 317°
2026-04-17 05:55 60.03184 -134.02871 24330 ft 330 kts 317°
2026-04-17 05:55 60.05006 -134.05641 23889 ft 328 kts 317°
2026-04-17 05:55 60.06819 -134.08404 23394 ft 327 kts 317°
2026-04-17 05:56 60.08627 -134.11163 22861 ft 326 kts 317°
2026-04-17 05:56 60.10429 -134.13915 22346 ft 325 kts 317°
2026-04-17 05:56 60.12227 -134.16666 21829 ft 325 kts 317°
2026-04-17 05:56 60.14020 -134.19413 21336 ft 324 kts 317°
2026-04-17 05:57 60.15811 -134.22161 20823 ft 324 kts 317°
2026-04-17 05:57 60.17600 -134.24908 20352 ft 323 kts 317°
2026-04-17 05:57 60.19385 -134.27654 19864 ft 323 kts 317°
2026-04-17 05:57 60.21165 -134.30396 19385 ft 322 kts 317°
2026-04-17 05:58 60.22938 -134.33132 18929 ft 321 kts 317°
2026-04-17 05:58 60.24707 -134.35865 18468 ft 320 kts 317°
2026-04-17 05:58 60.26468 -134.38587 17950 ft 319 kts 317°
2026-04-17 05:59 60.29977 -134.44025 16911 ft 314 kts 317°
2026-04-17 05:59 60.31677 -134.46653 16408 ft 308 kts 318°
2026-04-17 05:59 60.33372 -134.49218 15907 ft 302 kts 319°
2026-04-17 05:59 60.35046 -134.51736 15423 ft 297 kts 319°
2026-04-17 06:00 60.36691 -134.54216 14947 ft 293 kts 319°
2026-04-17 06:00 60.38321 -134.56677 14466 ft 290 kts 319°
2026-04-17 06:00 60.39912 -134.59089 14001 ft 287 kts 319°
2026-04-17 06:00 60.41503 -134.61503 13486 ft 284 kts 320°
2026-04-17 06:01 60.42547 -134.63082 13138 ft 282 kts 321°
2026-04-17 06:01 60.43171 -134.63922 12933 ft 283 kts 327°
2026-04-17 06:01 60.44717 -134.65265 12497 ft 284 kts 336°
2026-04-17 06:01 60.46583 -134.66532 11988 ft 282 kts 338°
2026-04-17 06:02 60.48434 -134.67774 11487 ft 279 kts 338°
2026-04-17 06:02 60.50268 -134.69014 11020 ft 277 kts 338°
2026-04-17 06:02 60.52093 -134.70233 10569 ft 275 kts 338°
2026-04-17 06:02 60.53902 -134.71448 10094 ft 273 kts 338°
2026-04-17 06:03 60.55700 -134.72673 9625 ft 271 kts 338°
2026-04-17 06:03 60.57488 -134.73914 9115 ft 270 kts 336°
2026-04-17 06:03 60.59200 -134.75326 8636 ft 268 kts 334°
2026-04-17 06:03 60.60915 -134.76787 8144 ft 267 kts 334°
2026-04-17 06:04 60.62630 -134.78257 7674 ft 267 kts 334°
2026-04-17 06:04 60.64342 -134.79730 7218 ft 266 kts 334°
2026-04-17 06:04 60.66045 -134.81198 6755 ft 266 kts 334°
2026-04-17 06:04 60.67750 -134.82669 6298 ft 266 kts 334°
2026-04-17 06:05 60.69454 -134.84147 5807 ft 266 kts 334°
2026-04-17 06:05 60.71147 -134.85635 5504 ft 258 kts 334°
2026-04-17 06:05 60.72693 -134.87181 5583 ft 237 kts 325°
2026-04-17 06:05 60.74023 -134.89022 5625 ft 226 kts 323°
2026-04-17 06:06 60.75293 -134.90791 5633 ft 214 kts 323°
2026-04-17 06:06 60.76467 -134.92417 5605 ft 193 kts 323°
2026-04-17 06:06 60.77551 -134.93905 5635 ft 185 kts 323°
2026-04-17 06:06 60.78596 -134.95333 5673 ft 181 kts 323°
2026-04-17 06:07 60.79624 -134.96859 5626 ft 183 kts 310°
2026-04-17 06:07 60.80146 -134.99001 5664 ft 155 kts 283°
2026-04-17 06:07 60.80376 -135.00889 5945 ft 125 kts 272°
2026-04-17 06:07 60.80231 -135.02732 6107 ft 137 kts 251°
2026-04-17 06:08 60.79911 -135.04549 6000 ft 134 kts 248°
2026-04-17 06:08 60.79585 -135.06319 5545 ft 132 kts 248°
2026-04-17 06:08 60.79254 -135.08069 5076 ft 129 kts 244°
2026-04-17 06:08 60.78737 -135.09481 4663 ft 124 kts 216°
2026-04-17 06:09 60.77994 -135.10313 4322 ft 119 kts 200°
2026-04-17 06:09 60.77178 -135.10699 3885 ft 126 kts 181°
2026-04-17 06:09 60.76318 -135.10527 3626 ft 120 kts 173°
2026-04-17 06:09 60.75595 -135.10227 3264 ft 119 kts 165°
2026-04-17 06:10 60.74809 -135.09665 2995 ft 122 kts 162°
2026-04-17 06:10 60.74026 -135.09093 2835 ft 118 kts 161°
2026-04-17 06:10 60.73256 -135.08495 2670 ft 118 kts 159°
2026-04-17 06:10 60.72486 -135.07905 2468 ft 117 kts 159°
2026-04-17 06:11 60.71749 -135.07343 2320 ft 110 kts 158°
2026-04-17 06:11 60.71085 -135.06818 2289 ft 89 kts 160°
2026-04-17 06:11 60.70659 -135.06498 2303 ft 53 kts 160°
2026-04-17 06:11 60.70348 -135.06263 2317 ft 42 kts 159°
2026-04-17 06:12 60.70168 -135.06126 2323 ft 7 kts 160°
2026-04-17 06:12 60.70119 -135.06138 2324 ft 7 kts 205°
2026-04-17 06:12 60.70113 -135.06228 2324 ft 8 kts 307°
2026-04-17 06:12 60.70145 -135.06313 2324 ft 7 kts 307°
2026-04-17 06:13 60.70180 -135.06406 2323 ft 10 kts 307°
2026-04-17 06:13 60.70239 -135.06541 2320 ft 14 kts 329°
2026-04-17 06:13 60.70332 -135.06613 2315 ft 16 kts 340°
2026-04-17 06:13 60.70450 -135.06700 2311 ft 19 kts 340°
2026-04-17 06:14 60.70529 -135.06787 2311 ft 4 kts 294°
2026-04-17 06:14 60.70524 -135.06843 2312 ft 0 kts 249°